Time,TemperatureF,DewpointF,PressureIn,WindDirection,WindDirectionDegrees,WindSpeedMPH,WindSpeedGustMPH,Humidity,HourlyPrecipIn,Conditions,Clouds,dailyrainin,SoftwareType,DateUTC
2013-05-05 00:01:00,49.7,39.6,30.23,WSW,241,0.0,0.0,68,0.00,,CLR,0.00,VWS V12.08,2013-05-05 04:01:00,
2013-05-05 00:06:00,49.6,40.2,30.23,WSW,241,1.0,1.0,70,0.00,,CLR,0.00,VWS V12.08,2013-05-05 04:06:00,
2013-05-05 00:11:00,49.3,40.3,30.23,WSW,241,0.0,1.0,71,0.00,,CLR,0.00,VWS V12.08,2013-05-05 04:11:00,
2013-05-05 00:16:00,49.0,40.0,30.24,WSW,241,0.0,2.0,71,0.00,,CLR,0.00,VWS V12.08,2013-05-05 04:16:00,
2013-05-05 00:21:00,48.7,39.7,30.24,WSW,241,1.0,2.0,71,0.00,,CLR,0.00,VWS V12.08,2013-05-05 04:21:00,
2013-05-05 00:26:00,48.4,39.4,30.24,WSW,241,0.0,0.0,71,0.00,,CLR,0.00,VWS V12.08,2013-05-05 04:26:00,
2013-05-05 00:31:00,48.1,39.9,30.24,WSW,241,0.0,0.0,73,0.00,,CLR,0.00,VWS V12.08,2013-05-05 04:31:00,
2013-05-05 00:36:00,47.6,39.7,30.24,WSW,241,1.0,2.0,74,0.00,,CLR,0.00,VWS V12.08,2013-05-05 04:36:00,
2013-05-05 00:41:00,47.4,39.9,30.24,WSW,241,0.0,0.0,75,0.00,,CLR,0.00,VWS V12.08,2013-05-05 04:41:00,
2013-05-05 00:46:00,47.2,39.7,30.24,WSW,241,0.0,0.0,75,0.00,,CLR,0.00,VWS V12.08,2013-05-05 04:46:00,
2013-05-05 00:51:00,46.9,39.4,30.24,WSW,241,0.0,0.0,75,0.00,,CLR,0.00,VWS V12.08,2013-05-05 04:51:00,
2013-05-05 00:56:00,46.8,39.3,30.24,WSW,241,1.0,1.0,75,0.00,,CLR,0.00,VWS V12.08,2013-05-05 04:56:00,
2013-05-05 01:01:00,46.8,39.3,30.24,WSW,241,0.0,0.0,75,0.00,,CLR,0.00,VWS V12.08,2013-05-05 05:01:00,
2013-05-05 01:06:00,46.6,38.8,30.24,WSW,240,0.0,0.0,74,0.00,,CLR,0.00,VWS V12.08,2013-05-05 05:06:00,
2013-05-05 01:11:00,46.6,38.8,30.24,WSW,241,0.0,2.0,74,0.00,,CLR,0.00,VWS V12.08,2013-05-05 05:11:00,
2013-05-05 01:16:00,46.3,38.5,30.24,WSW,241,0.0,0.0,74,0.00,,CLR,0.00,VWS V12.08,2013-05-05 05:16:00,
2013-05-05 01:21:00,46.2,38.7,30.24,WSW,241,0.0,0.0,75,0.00,,CLR,0.00,VWS V12.08,2013-05-05 05:21:00,
2013-05-05 01:26:00,45.7,38.6,30.24,WSW,241,0.0,0.0,76,0.00,,CLR,0.00,VWS V12.08,2013-05-05 05:26:00,
2013-05-05 01:31:00,45.4,38.6,30.24,WSW,241,0.0,0.0,77,0.00,,CLR,0.00,VWS V12.08,2013-05-05 05:31:00,
2013-05-05 01:36:00,45.1,38.3,30.24,WSW,241,0.0,0.0,77,0.00,,CLR,0.00,VWS V12.08,2013-05-05 05:36:00,
2013-05-05 01:41:00,44.8,38.4,30.24,WSW,241,1.0,1.0,78,0.00,,CLR,0.00,VWS V12.08,2013-05-05 05:41:00,
2013-05-05 01:46:00,44.5,38.7,30.24,WSW,241,0.0,2.0,80,0.00,,CLR,0.00,VWS V12.08,2013-05-05 05:46:00,
2013-05-05 01:51:00,44.2,38.8,30.24,WSW,241,0.0,0.0,81,0.00,,CLR,0.00,VWS V12.08,2013-05-05 05:51:00,
2013-05-05 01:56:00,44.0,38.9,30.24,WSW,241,1.0,1.0,82,0.00,,CLR,0.00,VWS V12.08,2013-05-05 05:56:00,
2013-05-05 02:02:00,43.5,38.7,30.24,WSW,241,0.0,0.0,83,0.00,,CLR,0.00,VWS V12.08,2013-05-05 06:02:00,
2013-05-05 02:07:00,43.2,38.7,30.24,WSW,241,0.0,0.0,84,0.00,,CLR,0.00,VWS V12.08,2013-05-05 06:07:00,
2013-05-05 02:12:00,42.9,38.4,30.24,WSW,241,0.0,0.0,84,0.00,,CLR,0.00,VWS V12.08,2013-05-05 06:12:00,
2013-05-05 02:17:00,42.5,38.0,30.24,WSW,241,0.0,0.0,84,0.00,,CLR,0.00,VWS V12.08,2013-05-05 06:17:00,
2013-05-05 02:22:00,42.2,38.0,30.24,WSW,241,0.0,0.0,85,0.00,,CLR,0.00,VWS V12.08,2013-05-05 06:22:00,
2013-05-05 02:27:00,42.1,38.2,30.24,WSW,241,0.0,2.0,86,0.00,,CLR,0.00,VWS V12.08,2013-05-05 06:27:00,
2013-05-05 02:30:00,41.9,38.0,30.24,WSW,241,0.0,0.0,86,0.00,,FEW055,0.00,VWS V12.08,2013-05-05 06:30:00,
2013-05-05 02:32:00,41.8,37.9,30.24,WSW,241,0.0,0.0,86,0.00,,CLR,0.00,VWS V12.08,2013-05-05 06:32:00,
2013-05-05 02:37:00,41.5,37.9,30.24,WSW,241,0.0,1.0,87,0.00,,CLR,0.00,VWS V12.08,2013-05-05 06:37:00,
2013-05-05 02:40:00,41.3,37.7,30.24,WSW,241,0.0,0.0,87,0.00,,FEW055,0.00,VWS V12.08,2013-05-05 06:40:00,
2013-05-05 02:42:00,41.2,37.6,30.24,WSW,243,0.0,0.0,87,0.00,,CLR,0.00,VWS V12.08,2013-05-05 06:42:00,
2013-05-05 02:47:00,41.1,37.8,30.24,WSW,241,0.0,0.0,88,0.00,,CLR,0.00,VWS V12.08,2013-05-05 06:47:00,
2013-05-05 02:50:00,40.9,37.6,30.24,WSW,241,0.0,0.0,88,0.00,,FEW055,0.00,VWS V12.08,2013-05-05 06:50:00,
2013-05-05 02:52:00,40.8,37.5,30.24,WSW,241,0.0,0.0,88,0.00,,CLR,0.00,VWS V12.08,2013-05-05 06:52:00,
2013-05-05 02:57:00,40.5,37.5,30.24,WSW,241,0.0,0.0,89,0.00,,CLR,0.00,VWS V12.08,2013-05-05 06:57:00,
2013-05-05 03:00:00,40.5,37.5,30.24,WSW,241,0.0,0.0,89,0.00,,FEW055,0.00,VWS V12.08,2013-05-05 07:00:00,
2013-05-05 03:02:00,40.3,37.3,30.24,WSW,241,0.0,0.0,89,0.00,,CLR,0.00,VWS V12.08,2013-05-05 07:02:00,
2013-05-05 03:07:00,40.2,37.5,30.24,WSW,241,0.0,0.0,90,0.00,,CLR,0.00,VWS V12.08,2013-05-05 07:07:00,
2013-05-05 03:10:00,40.1,37.4,30.24,WSW,241,0.0,0.0,90,0.00,,FEW055,0.00,VWS V12.08,2013-05-05 07:10:00,
2013-05-05 03:12:00,39.9,37.2,30.24,WSW,241,0.0,0.0,90,0.00,,CLR,0.00,VWS V12.08,2013-05-05 07:12:00,
2013-05-05 03:17:00,39.8,37.1,30.25,WSW,241,0.0,0.0,90,0.00,,CLR,0.00,VWS V12.08,2013-05-05 07:17:00,
2013-05-05 03:20:00,39.6,36.9,30.25,WSW,241,0.0,0.0,90,0.00,,FEW055,0.00,VWS V12.08,2013-05-05 07:20:00,
2013-05-05 03:22:00,39.5,36.8,30.25,WSW,241,0.0,0.0,90,0.00,,CLR,0.00,VWS V12.08,2013-05-05 07:22:00,
2013-05-05 03:27:00,39.3,36.9,30.25,WSW,241,0.0,0.0,91,0.00,,CLR,0.00,VWS V12.08,2013-05-05 07:27:00,
2013-05-05 03:30:00,39.2,36.8,30.25,WSW,241,0.0,0.0,91,0.00,,FEW055,0.00,VWS V12.08,2013-05-05 07:30:00,
2013-05-05 03:32:00,39.2,36.8,30.25,WSW,241,0.0,0.0,91,0.00,,CLR,0.00,VWS V12.08,2013-05-05 07:32:00,
2013-05-05 03:37:00,38.9,36.5,30.25,WSW,241,0.0,0.0,91,0.00,,CLR,0.00,VWS V12.08,2013-05-05 07:37:00,
2013-05-05 03:40:00,38.9,36.5,30.25,WSW,241,0.0,0.0,91,0.00,,FEW055,0.00,VWS V12.08,2013-05-05 07:40:00,
2013-05-05 03:42:00,38.8,36.4,30.25,WSW,241,0.0,0.0,91,0.00,,CLR,0.00,VWS V12.08,2013-05-05 07:42:00,
2013-05-05 03:47:00,38.8,36.7,30.25,WSW,241,0.0,0.0,92,0.00,,CLR,0.00,VWS V12.08,2013-05-05 07:47:00,
2013-05-05 03:50:00,38.6,36.5,30.25,WSW,241,0.0,0.0,92,0.00,,FEW055,0.00,VWS V12.08,2013-05-05 07:50:00,
2013-05-05 03:52:00,38.6,36.5,30.25,WSW,241,0.0,0.0,92,0.00,,CLR,0.00,VWS V12.08,2013-05-05 07:52:00,
2013-05-05 03:57:00,38.5,36.4,30.25,WSW,241,0.0,0.0,92,0.00,,CLR,0.00,VWS V12.08,2013-05-05 07:57:00,
2013-05-05 04:00:00,38.3,36.2,30.25,WSW,241,0.0,0.0,92,0.00,,FEW055,0.00,VWS V12.08,2013-05-05 08:00:00,
2013-05-05 04:02:00,38.2,36.1,30.25,WSW,241,0.0,0.0,92,0.00,,CLR,0.00,VWS V12.08,2013-05-05 08:02:00,
2013-05-05 04:07:00,38.1,36.0,30.25,WSW,241,0.0,0.0,92,0.00,,CLR,0.00,VWS V12.08,2013-05-05 08:07:00,
2013-05-05 04:10:00,38.1,36.0,30.25,WSW,241,0.0,0.0,92,0.00,,FEW055,0.00,VWS V12.08,2013-05-05 08:10:00,
2013-05-05 04:12:00,37.9,35.8,30.25,WSW,241,0.0,0.0,92,0.00,,CLR,0.00,VWS V12.08,2013-05-05 08:12:00,
2013-05-05 04:17:00,37.8,36.0,30.26,WSW,241,0.0,0.0,93,0.00,,CLR,0.00,VWS V12.08,2013-05-05 08:17:00,
2013-05-05 04:20:00,37.6,35.8,30.26,WSW,241,0.0,0.0,93,0.00,,FEW055,0.00,VWS V12.08,2013-05-05 08:20:00,
2013-05-05 04:22:00,37.6,36.0,30.26,WSW,241,0.0,0.0,94,0.00,,CLR,0.00,VWS V12.08,2013-05-05 08:22:00,
2013-05-05 04:27:00,37.5,35.9,30.26,WSW,241,0.0,0.0,94,0.00,,CLR,0.00,VWS V12.08,2013-05-05 08:27:00,
2013-05-05 04:30:00,37.5,35.9,30.26,WSW,241,0.0,0.0,94,0.00,,FEW055,0.00,VWS V12.08,2013-05-05 08:30:00,
2013-05-05 04:32:00,37.3,35.7,30.26,WSW,241,0.0,0.0,94,0.00,,CLR,0.00,VWS V12.08,2013-05-05 08:32:00,
2013-05-05 04:37:00,37.2,35.6,30.26,WSW,241,0.0,0.0,94,0.00,,CLR,0.00,VWS V12.08,2013-05-05 08:37:00,
2013-05-05 04:40:00,37.1,35.5,30.26,WSW,241,0.0,0.0,94,0.00,,FEW055,0.00,VWS V12.08,2013-05-05 08:40:00,
2013-05-05 04:42:00,36.9,35.3,30.26,WSW,241,0.0,0.0,94,0.00,,CLR,0.00,VWS V12.08,2013-05-05 08:42:00,
2013-05-05 04:47:00,36.8,35.2,30.26,WSW,241,0.0,0.0,94,0.00,,CLR,0.00,VWS V12.08,2013-05-05 08:47:00,
2013-05-05 04:50:00,36.8,35.2,30.26,WSW,241,0.0,0.0,94,0.00,,FEW055,0.00,VWS V12.08,2013-05-05 08:50:00,
2013-05-05 04:52:00,36.8,35.5,30.26,WSW,241,0.0,0.0,95,0.00,,CLR,0.00,VWS V12.08,2013-05-05 08:52:00,
2013-05-05 04:57:00,36.6,35.3,30.26,WSW,241,0.0,0.0,95,0.00,,CLR,0.00,VWS V12.08,2013-05-05 08:57:00,
2013-05-05 05:00:00,36.6,35.3,30.26,WSW,241,0.0,0.0,95,0.00,,FEW055,0.00,VWS V12.08,2013-05-05 09:00:00,
2013-05-05 05:02:00,36.5,35.2,30.26,WSW,241,0.0,0.0,95,0.00,,CLR,0.00,VWS V12.08,2013-05-05 09:02:00,
2013-05-05 05:07:00,36.3,35.0,30.26,WSW,241,0.0,0.0,95,0.00,,CLR,0.00,VWS V12.08,2013-05-05 09:07:00,
2013-05-05 05:10:00,36.3,35.0,30.26,WSW,241,0.0,0.0,95,0.00,,FEW055,0.00,VWS V12.08,2013-05-05 09:10:00,
2013-05-05 05:12:00,36.3,35.0,30.26,WSW,241,0.0,0.0,95,0.00,,CLR,0.00,VWS V12.08,2013-05-05 09:12:00,
2013-05-05 05:17:00,36.2,34.9,30.27,WSW,241,0.0,0.0,95,0.00,,CLR,0.00,VWS V12.08,2013-05-05 09:17:00,
2013-05-05 05:20:00,36.2,35.2,30.27,WSW,241,0.0,0.0,96,0.00,,FEW055,0.00,VWS V12.08,2013-05-05 09:20:00,
2013-05-05 05:22:00,36.2,35.2,30.27,WSW,241,0.0,0.0,96,0.00,,CLR,0.00,VWS V12.08,2013-05-05 09:22:00,
2013-05-05 05:27:00,36.2,35.2,30.27,WSW,241,0.0,0.0,96,0.00,,CLR,0.00,VWS V12.08,2013-05-05 09:27:00,
2013-05-05 05:30:00,36.2,35.2,30.27,WSW,241,0.0,0.0,96,0.00,,FEW055,0.00,VWS V12.08,2013-05-05 09:30:00,
2013-05-05 05:32:00,36.2,35.4,30.27,WSW,241,0.0,0.0,97,0.00,,CLR,0.00,VWS V12.08,2013-05-05 09:32:00,
2013-05-05 05:37:00,36.0,35.2,30.27,WSW,241,0.0,0.0,97,0.00,,CLR,0.00,VWS V12.08,2013-05-05 09:37:00,
2013-05-05 05:40:00,36.0,35.2,30.27,WSW,241,0.0,0.0,97,0.00,,FEW055,0.00,VWS V12.08,2013-05-05 09:40:00,
2013-05-05 05:42:00,36.0,35.2,30.27,WSW,241,0.0,0.0,97,0.00,,CLR,0.00,VWS V12.08,2013-05-05 09:42:00,
2013-05-05 05:47:00,36.0,35.2,30.27,WSW,243,0.0,0.0,97,0.00,,CLR,0.00,VWS V12.08,2013-05-05 09:47:00,
2013-05-05 05:50:00,35.9,35.1,30.27,WSW,241,0.0,0.0,97,0.00,,FEW055,0.00,VWS V12.08,2013-05-05 09:50:00,
2013-05-05 05:52:00,35.9,35.1,30.27,WSW,241,0.0,0.0,97,0.00,,CLR,0.00,VWS V12.08,2013-05-05 09:52:00,
2013-05-05 05:57:00,35.9,35.1,30.27,WSW,241,0.0,0.0,97,0.00,,CLR,0.00,VWS V12.08,2013-05-05 09:57:00,
2013-05-05 06:00:00,35.9,35.1,30.27,WSW,241,0.0,0.0,97,0.00,,FEW055,0.00,VWS V12.08,2013-05-05 10:00:00,
2013-05-05 06:02:00,36.0,35.5,30.27,WSW,241,0.0,0.0,98,0.00,,CLR,0.00,VWS V12.08,2013-05-05 10:02:00,
2013-05-05 06:07:00,36.3,35.8,30.27,WSW,241,1.0,1.0,98,0.00,,CLR,0.00,VWS V12.08,2013-05-05 10:07:00,
2013-05-05 06:10:00,36.5,36.0,30.27,WSW,241,1.0,2.0,98,0.00,,FEW055,0.00,VWS V12.08,2013-05-05 10:10:00,
2013-05-05 06:12:00,36.8,36.3,30.27,WSW,241,0.0,0.0,98,0.00,,CLR,0.00,VWS V12.08,2013-05-05 10:12:00,
2013-05-05 06:17:00,37.2,36.4,30.27,WSW,241,0.0,0.0,97,0.00,,CLR,0.00,VWS V12.08,2013-05-05 10:17:00,
2013-05-05 06:20:00,37.3,36.5,30.27,WSW,241,0.0,0.0,97,0.00,,FEW055,0.00,VWS V12.08,2013-05-05 10:20:00,
2013-05-05 06:22:00,37.5,36.5,30.27,WSW,241,0.0,0.0,96,0.00,,CLR,0.00,VWS V12.08,2013-05-05 10:22:00,
2013-05-05 06:27:00,37.9,36.9,30.27,WSW,241,2.0,2.0,96,0.00,,CLR,0.00,VWS V12.08,2013-05-05 10:27:00,
2013-05-05 06:30:00,37.9,36.6,30.27,WSW,241,2.0,2.0,95,0.00,,FEW055,0.00,VWS V12.08,2013-05-05 10:30:00,
2013-05-05 06:32:00,38.2,36.6,30.27,ESE,109,0.0,2.0,94,0.00,,CLR,0.00,VWS V12.08,2013-05-05 10:32:00,
2013-05-05 06:37:00,38.6,36.8,30.27,ESE,109,2.0,2.0,93,0.00,,CLR,0.00,VWS V12.08,2013-05-05 10:37:00,
2013-05-05 06:40:00,38.8,37.0,30.27,East,90,3.0,3.0,93,0.00,,FEW055,0.00,VWS V12.08,2013-05-05 10:40:00,
2013-05-05 06:42:00,39.1,37.0,30.27,East,89,1.0,2.0,92,0.00,,CLR,0.00,VWS V12.08,2013-05-05 10:42:00,
2013-05-05 06:47:00,39.5,36.8,30.27,East,89,1.0,2.0,90,0.00,,CLR,0.00,VWS V12.08,2013-05-05 10:47:00,
2013-05-05 06:50:00,39.6,36.9,30.27,East,89,2.0,2.0,90,0.00,,FEW055,0.00,VWS V12.08,2013-05-05 10:50:00,
2013-05-05 06:52:00,39.8,36.5,30.27,East,89,0.0,0.0,88,0.00,,CLR,0.00,VWS V12.08,2013-05-05 10:52:00,
2013-05-05 06:57:00,39.9,36.6,30.27,East,89,0.0,0.0,88,0.00,,CLR,0.00,VWS V12.08,2013-05-05 10:57:00,
2013-05-05 07:00:00,40.1,36.8,30.28,East,89,0.0,0.0,88,0.00,,FEW055,0.00,VWS V12.08,2013-05-05 11:00:00,
2013-05-05 07:02:00,40.8,37.2,30.28,East,89,1.0,2.0,87,0.00,,CLR,0.00,VWS V12.08,2013-05-05 11:02:00,
2013-05-05 07:07:00,41.3,37.1,30.28,East,89,0.0,1.0,85,0.00,,CLR,0.00,VWS V12.08,2013-05-05 11:07:00,
2013-05-05 07:10:00,41.5,37.0,30.28,East,89,1.0,2.0,84,0.00,,FEW055,0.00,VWS V12.08,2013-05-05 11:10:00,
2013-05-05 07:12:00,41.9,36.8,30.28,East,89,0.0,1.0,82,0.00,,CLR,0.00,VWS V12.08,2013-05-05 11:12:00,
2013-05-05 07:17:00,42.5,36.8,30.28,East,89,0.0,0.0,80,0.00,,CLR,0.00,VWS V12.08,2013-05-05 11:17:00,
2013-05-05 07:20:00,42.5,36.8,30.28,East,89,0.0,0.0,80,0.00,,FEW055,0.00,VWS V12.08,2013-05-05 11:20:00,
2013-05-05 07:22:00,43.1,37.4,30.28,East,89,0.0,0.0,80,0.00,,CLR,0.00,VWS V12.08,2013-05-05 11:22:00,
2013-05-05 07:27:00,43.8,37.4,30.27,South,181,1.0,1.0,78,0.00,,CLR,0.00,VWS V12.08,2013-05-05 11:27:00,
2013-05-05 07:30:00,43.8,37.1,30.27,South,181,0.0,1.0,77,0.00,,FEW055,0.00,VWS V12.08,2013-05-05 11:30:00,
2013-05-05 07:32:00,44.4,37.3,30.27,South,175,0.0,1.0,76,0.00,,CLR,0.00,VWS V12.08,2013-05-05 11:32:00,
2013-05-05 07:37:00,44.7,37.6,30.27,East,96,2.0,2.0,76,0.00,,CLR,0.00,VWS V12.08,2013-05-05 11:37:00,
2013-05-05 07:40:00,44.8,37.7,30.27,East,96,1.0,2.0,76,0.00,,FEW055,0.00,VWS V12.08,2013-05-05 11:40:00,
2013-05-05 07:42:00,45.1,37.3,30.27,East,96,2.0,2.0,74,0.00,,CLR,0.00,VWS V12.08,2013-05-05 11:42:00,
2013-05-05 07:47:00,45.3,37.5,30.27,East,96,0.0,0.0,74,0.00,,CLR,0.00,VWS V12.08,2013-05-05 11:47:00,
2013-05-05 07:50:00,45.3,37.2,30.27,East,96,0.0,0.0,73,0.00,,FEW055,0.00,VWS V12.08,2013-05-05 11:50:00,
2013-05-05 07:52:00,45.1,36.6,30.27,East,96,1.0,2.0,72,0.00,,CLR,0.00,VWS V12.08,2013-05-05 11:52:00,
2013-05-05 07:58:00,46.2,37.7,30.27,East,96,0.0,2.0,72,0.00,,CLR,0.00,VWS V12.08,2013-05-05 11:58:00,
2013-05-05 08:00:00,46.3,37.4,30.27,East,96,0.0,2.0,71,0.00,,FEW055,0.00,VWS V12.08,2013-05-05 12:00:00,
2013-05-05 08:03:00,46.8,37.2,30.27,East,96,0.0,1.0,69,0.00,,CLR,0.00,VWS V12.08,2013-05-05 12:03:00,
2013-05-05 08:08:00,47.2,36.4,30.27,South,174,1.0,2.0,66,0.00,,CLR,0.00,VWS V12.08,2013-05-05 12:08:00,
2013-05-05 08:10:00,47.4,36.6,30.27,South,174,0.0,2.0,66,0.00,,FEW055,0.00,VWS V12.08,2013-05-05 12:10:00,
2013-05-05 08:13:00,47.4,35.8,30.27,South,174,0.0,2.0,64,0.00,,CLR,0.00,VWS V12.08,2013-05-05 12:13:00,
2013-05-05 08:18:00,47.5,35.9,30.27,ESE,110,2.0,2.0,64,0.00,,CLR,0.00,VWS V12.08,2013-05-05 12:18:00,
2013-05-05 08:20:00,47.5,35.9,30.27,ESE,110,0.0,2.0,64,0.00,,FEW055,0.00,VWS V12.08,2013-05-05 12:20:00,
2013-05-05 08:23:00,48.7,37.1,30.27,ESE,110,2.0,2.0,64,0.00,,CLR,0.00,VWS V12.08,2013-05-05 12:23:00,
2013-05-05 08:28:00,49.6,36.7,30.27,ESE,112,1.0,2.0,61,0.00,,CLR,0.00,VWS V12.08,2013-05-05 12:28:00,
2013-05-05 08:30:00,49.6,37.1,30.27,ESE,113,1.0,2.0,62,0.00,,FEW055,0.00,VWS V12.08,2013-05-05 12:30:00,
2013-05-05 08:33:00,50.2,36.4,30.27,SW,224,0.0,0.0,59,0.00,,CLR,0.00,VWS V12.08,2013-05-05 12:33:00,
2013-05-05 08:38:00,51.2,36.5,30.27,SW,230,3.0,5.0,57,0.00,,CLR,0.00,VWS V12.08,2013-05-05 12:38:00,
2013-05-05 08:40:00,51.3,36.6,30.27,SW,232,2.0,5.0,57,0.00,,FEW055,0.00,VWS V12.08,2013-05-05 12:40:00,
2013-05-05 08:43:00,51.8,35.7,30.27,SW,223,0.0,5.0,54,0.00,,CLR,0.00,VWS V12.08,2013-05-05 12:43:00,
2013-05-05 08:48:00,51.6,35.5,30.27,WSW,241,6.0,6.0,54,0.00,,CLR,0.00,VWS V12.08,2013-05-05 12:48:00,
2013-05-05 08:50:00,51.6,35.5,30.27,SW,236,0.0,6.0,54,0.00,,FEW055,0.00,VWS V12.08,2013-05-05 12:50:00,
2013-05-05 08:53:00,51.9,35.8,30.27,WSW,243,4.0,7.0,54,0.00,,CLR,0.00,VWS V12.08,2013-05-05 12:53:00,
2013-05-05 08:58:00,52.2,35.6,30.26,WSW,243,2.0,3.0,53,0.00,,CLR,0.00,VWS V12.08,2013-05-05 12:58:00,
2013-05-05 09:00:00,52.2,34.6,30.26,WSW,243,2.0,2.0,51,0.00,,FEW055,0.00,VWS V12.08,2013-05-05 13:00:00,
2013-05-05 09:03:00,52.8,35.7,30.26,West,261,2.0,3.0,52,0.00,,CLR,0.00,VWS V12.08,2013-05-05 13:03:00,
2013-05-05 09:08:00,53.6,35.4,30.26,WSW,256,5.0,6.0,50,0.00,,CLR,0.00,VWS V12.08,2013-05-05 13:08:00,
2013-05-05 09:10:00,53.7,35.5,30.26,WSW,243,3.0,6.0,50,0.00,,FEW055,0.00,VWS V12.08,2013-05-05 13:10:00,
2013-05-05 09:13:00,54.0,35.3,30.26,SSW,203,5.0,6.0,49,0.00,,CLR,0.00,VWS V12.08,2013-05-05 13:13:00,
2013-05-05 09:18:00,53.7,34.5,30.26,SW,232,2.0,5.0,48,0.00,,CLR,0.00,VWS V12.08,2013-05-05 13:18:00,
2013-05-05 09:20:00,53.7,34.5,30.26,SW,232,0.0,3.0,48,0.00,,FEW055,0.00,VWS V12.08,2013-05-05 13:20:00,
2013-05-05 09:23:00,54.2,35.0,30.26,SW,232,0.0,2.0,48,0.00,,CLR,0.00,VWS V12.08,2013-05-05 13:23:00,
2013-05-05 09:28:00,54.5,35.2,30.25,SW,217,3.0,3.0,48,0.00,,CLR,0.00,VWS V12.08,2013-05-05 13:28:00,
2013-05-05 09:30:00,54.5,35.2,30.25,SW,217,3.0,3.0,48,0.00,,FEW055,0.00,VWS V12.08,2013-05-05 13:30:00,
2013-05-05 09:33:00,54.6,34.8,30.25,SSW,205,2.0,5.0,47,0.00,,CLR,0.00,VWS V12.08,2013-05-05 13:33:00,
2013-05-05 09:38:00,54.9,35.1,30.25,SW,232,6.0,6.0,47,0.00,,CLR,0.00,VWS V12.08,2013-05-05 13:38:00,
2013-05-05 09:40:00,54.9,35.1,30.25,SW,226,0.0,6.0,47,0.00,,FEW055,0.00,VWS V12.08,2013-05-05 13:40:00,
2013-05-05 09:43:00,55.5,35.6,30.24,WSW,240,3.0,5.0,47,0.00,,CLR,0.00,VWS V12.08,2013-05-05 13:43:00,
2013-05-05 09:48:00,56.0,35.0,30.24,SSW,209,1.0,5.0,45,0.00,,CLR,0.00,VWS V12.08,2013-05-05 13:48:00,
2013-05-05 09:50:00,56.0,35.0,30.24,SSW,208,1.0,5.0,45,0.00,,FEW055,0.00,VWS V12.08,2013-05-05 13:50:00,
2013-05-05 09:53:00,56.6,35.0,30.24,WSW,248,3.0,8.0,44,0.00,,CLR,0.00,VWS V12.08,2013-05-05 13:53:00,
2013-05-05 09:58:00,56.9,36.3,30.24,SW,233,1.0,6.0,46,0.00,,CLR,0.00,VWS V12.08,2013-05-05 13:58:00,
2013-05-05 10:00:00,56.9,36.3,30.24,SW,234,3.0,6.0,46,0.00,,FEW055,0.00,VWS V12.08,2013-05-05 14:00:00,
2013-05-05 10:03:00,57.9,35.0,30.24,SW,222,6.0,7.0,42,0.00,,CLR,0.00,VWS V12.08,2013-05-05 14:03:00,
2013-05-05 10:08:00,58.4,35.4,30.24,SW,232,4.0,6.0,42,0.00,,CLR,0.00,VWS V12.08,2013-05-05 14:08:00,
2013-05-05 10:10:00,58.4,35.4,30.24,SW,217,3.0,6.0,42,0.00,,FEW055,0.00,VWS V12.08,2013-05-05 14:10:00,
2013-05-05 10:13:00,58.9,34.6,30.24,WSW,254,3.0,6.0,40,0.00,,CLR,0.00,VWS V12.08,2013-05-05 14:13:00,
2013-05-05 10:18:00,59.2,34.9,30.24,SW,226,0.0,5.0,40,0.00,,CLR,0.00,VWS V12.08,2013-05-05 14:18:00,
2013-05-05 10:20:00,59.3,35.0,30.24,WSW,237,6.0,6.0,40,0.00,,FEW055,0.00,VWS V12.08,2013-05-05 14:20:00,
2013-05-05 10:23:00,59.6,33.3,30.24,SSW,213,4.0,8.0,37,0.00,,CLR,0.00,VWS V12.08,2013-05-05 14:23:00,
2013-05-05 10:28:00,60.0,33.0,30.23,SSW,208,6.0,8.0,36,0.00,,CLR,0.00,VWS V12.08,2013-05-05 14:28:00,
2013-05-05 10:30:00,60.0,33.0,30.23,SSW,205,8.0,8.0,36,0.00,,FEW055,0.00,VWS V12.08,2013-05-05 14:30:00,
2013-05-05 10:33:00,59.8,32.8,30.23,SSW,203,0.0,7.0,36,0.00,,CLR,0.00,VWS V12.08,2013-05-05 14:33:00,
2013-05-05 10:38:00,60.6,32.8,30.23,SW,226,4.0,7.0,35,0.00,,CLR,0.00,VWS V12.08,2013-05-05 14:38:00,
2013-05-05 10:40:00,60.6,32.8,30.23,SSW,196,4.0,7.0,35,0.00,,FEW055,0.00,VWS V12.08,2013-05-05 14:40:00,
2013-05-05 10:43:00,60.9,33.1,30.22,SSW,203,1.0,1.0,35,0.00,,CLR,0.00,VWS V12.08,2013-05-05 14:43:00,
2013-05-05 10:48:00,61.7,31.6,30.22,SW,223,5.0,7.0,32,0.00,,CLR,0.00,VWS V12.08,2013-05-05 14:48:00,
2013-05-05 10:50:00,61.7,31.6,30.22,WSW,241,7.0,7.0,32,0.00,,FEW055,0.00,VWS V12.08,2013-05-05 14:50:00,
2013-05-05 10:53:00,62.2,32.8,30.22,WSW,240,4.0,7.0,33,0.00,,CLR,0.00,VWS V12.08,2013-05-05 14:53:00,
2013-05-05 10:58:00,62.8,34.0,30.22,SW,216,2.0,3.0,34,0.00,,CLR,0.00,VWS V12.08,2013-05-05 14:58:00,
2013-05-05 11:00:00,62.8,34.0,30.22,SW,216,0.0,3.0,34,0.00,,FEW055,0.00,VWS V12.08,2013-05-05 15:00:00,
2013-05-05 11:03:00,63.5,32.3,30.22,SW,215,5.0,7.0,31,0.00,,CLR,0.00,VWS V12.08,2013-05-05 15:03:00,
2013-05-05 11:08:00,63.5,33.1,30.22,SW,215,2.0,5.0,32,0.00,,CLR,0.00,VWS V12.08,2013-05-05 15:08:00,
2013-05-05 11:10:00,63.5,33.1,30.22,SW,215,2.0,5.0,32,0.00,,FEW055,0.00,VWS V12.08,2013-05-05 15:10:00,
2013-05-05 11:13:00,64.1,32.9,30.21,WSW,254,1.0,6.0,31,0.00,,CLR,0.00,VWS V12.08,2013-05-05 15:13:00,
2013-05-05 11:18:00,64.4,32.3,30.21,SW,226,5.0,8.0,30,0.00,,CLR,0.00,VWS V12.08,2013-05-05 15:18:00,
2013-05-05 11:20:00,64.4,32.3,30.21,SW,233,5.0,8.0,30,0.00,,FEW055,0.00,VWS V12.08,2013-05-05 15:20:00,
2013-05-05 11:23:00,64.9,31.0,30.21,SE,130,3.0,4.0,28,0.00,,CLR,0.00,VWS V12.08,2013-05-05 15:23:00,
2013-05-05 11:28:00,65.1,32.9,30.20,SW,217,0.0,3.0,30,0.00,,CLR,0.00,VWS V12.08,2013-05-05 15:28:00,
2013-05-05 11:30:00,65.1,32.9,30.20,SW,223,1.0,3.0,30,0.00,,FEW055,0.00,VWS V12.08,2013-05-05 15:30:00,
2013-05-05 11:33:00,65.6,32.5,30.20,WSW,257,0.0,2.0,29,0.00,,CLR,0.00,VWS V12.08,2013-05-05 15:33:00,
2013-05-05 11:38:00,66.4,33.2,30.20,SW,233,0.0,1.0,29,0.00,,CLR,0.00,VWS V12.08,2013-05-05 15:38:00,
2013-05-05 11:40:00,66.4,33.2,30.20,SW,233,0.0,1.0,29,0.00,,FEW055,0.00,VWS V12.08,2013-05-05 15:40:00,
2013-05-05 11:43:00,66.9,33.6,30.19,West,263,2.0,2.0,29,0.00,,CLR,0.00,VWS V12.08,2013-05-05 15:43:00,
2013-05-05 11:48:00,67.1,34.7,30.19,WSW,250,7.0,8.0,30,0.00,,CLR,0.00,VWS V12.08,2013-05-05 15:48:00,
2013-05-05 11:50:00,67.1,34.7,30.19,SW,224,8.0,8.0,30,0.00,,FEW055,0.00,VWS V12.08,2013-05-05 15:50:00,
2013-05-05 11:53:00,67.1,32.9,30.19,SSW,212,0.0,2.0,28,0.00,,CLR,0.00,VWS V12.08,2013-05-05 15:53:00,
2013-05-05 11:58:00,67.6,32.5,30.19,SW,227,7.0,7.0,27,0.00,,CLR,0.00,VWS V12.08,2013-05-05 15:58:00,
2013-05-05 12:00:00,67.6,32.5,30.19,WSW,237,6.0,7.0,27,0.00,,FEW055,0.00,VWS V12.08,2013-05-05 16:00:00,
2013-05-05 12:03:00,67.8,32.6,30.19,SW,217,0.0,3.0,27,0.00,,CLR,0.00,VWS V12.08,2013-05-05 16:03:00,
2013-05-05 12:08:00,67.8,33.5,30.19,SW,230,5.0,5.0,28,0.00,,CLR,0.00,VWS V12.08,2013-05-05 16:08:00,
2013-05-05 12:10:00,67.8,33.5,30.19,SW,232,5.0,5.0,28,0.00,,FEW055,0.00,VWS V12.08,2013-05-05 16:10:00,
2013-05-05 12:13:00,67.9,32.7,30.18,SW,215,1.0,1.0,27,0.00,,CLR,0.00,VWS V12.08,2013-05-05 16:13:00,
2013-05-05 12:18:00,68.4,33.1,30.18,SW,226,0.0,6.0,27,0.00,,CLR,0.00,VWS V12.08,2013-05-05 16:18:00,
2013-05-05 12:20:00,68.4,33.2,30.18,SW,226,0.0,6.0,27,0.00,,FEW055,0.00,VWS V12.08,2013-05-05 16:20:00,
2013-05-05 12:23:00,68.3,32.1,30.18,SW,217,5.0,5.0,26,0.00,,CLR,0.00,VWS V12.08,2013-05-05 16:23:00,
2013-05-05 12:28:00,68.6,32.4,30.17,SW,234,2.0,6.0,26,0.00,,CLR,0.00,VWS V12.08,2013-05-05 16:28:00,
2013-05-05 12:30:00,68.6,32.4,30.17,SW,234,2.0,6.0,26,0.00,,FEW055,0.00,VWS V12.08,2013-05-05 16:30:00,
2013-05-05 12:33:00,69.5,33.1,30.17,SW,223,2.0,5.0,26,0.00,,CLR,0.00,VWS V12.08,2013-05-05 16:33:00,
2013-05-05 12:38:00,70.0,33.6,30.17,WSW,254,1.0,3.0,26,0.00,,CLR,0.00,VWS V12.08,2013-05-05 16:38:00,
2013-05-05 12:40:00,70.0,33.6,30.17,WSW,254,1.0,3.0,26,0.00,,FEW055,0.00,VWS V12.08,2013-05-05 16:40:00,
2013-05-05 12:43:00,70.3,32.8,30.17,NW,320,1.0,1.0,25,0.00,,CLR,0.00,VWS V12.08,2013-05-05 16:43:00,
2013-05-05 12:48:00,70.5,32.0,30.17,SSE,160,1.0,6.0,24,0.00,,CLR,0.00,VWS V12.08,2013-05-05 16:48:00,
2013-05-05 12:50:00,70.5,32.0,30.17,SSE,160,1.0,6.0,24,0.00,,FEW055,0.00,VWS V12.08,2013-05-05 16:50:00,
2013-05-05 12:53:00,70.5,34.0,30.17,WSW,241,5.0,5.0,26,0.00,,CLR,0.00,VWS V12.08,2013-05-05 16:53:00,
2013-05-05 12:58:00,71.0,33.4,30.16,SW,223,7.0,7.0,25,0.00,,CLR,0.00,VWS V12.08,2013-05-05 16:58:00,
2013-05-05 13:00:00,71.0,33.4,30.16,SW,217,4.0,5.0,25,0.00,,FEW055,0.00,VWS V12.08,2013-05-05 17:00:00,
2013-05-05 13:03:00,71.3,33.7,30.16,SW,233,4.0,8.0,25,0.00,,CLR,0.00,VWS V12.08,2013-05-05 17:03:00,
2013-05-05 13:08:00,71.7,33.0,30.16,WSW,241,4.0,5.0,24,0.00,,CLR,0.00,VWS V12.08,2013-05-05 17:08:00,
2013-05-05 13:10:00,71.7,33.0,30.16,WSW,240,1.0,5.0,24,0.00,,FEW055,0.00,VWS V12.08,2013-05-05 17:10:00,
2013-05-05 13:13:00,72.0,34.3,30.15,WSW,257,2.0,6.0,25,0.00,,CLR,0.00,VWS V12.08,2013-05-05 17:13:00,
2013-05-05 13:18:00,72.6,33.8,30.15,WSW,250,7.0,7.0,24,0.00,,CLR,0.00,VWS V12.08,2013-05-05 17:18:00,
2013-05-05 13:20:00,72.6,33.8,30.15,WSW,258,5.0,5.0,24,0.00,,FEW055,0.00,VWS V12.08,2013-05-05 17:20:00,
2013-05-05 13:23:00,72.6,32.7,30.15,WSW,247,3.0,8.0,23,0.00,,CLR,0.00,VWS V12.08,2013-05-05 17:23:00,
2013-05-05 13:28:00,72.6,31.6,30.15,WSW,246,5.0,7.0,22,0.00,,CLR,0.00,VWS V12.08,2013-05-05 17:28:00,
2013-05-05 13:30:00,72.6,31.6,30.15,SW,233,6.0,7.0,22,0.00,,FEW055,0.00,VWS V12.08,2013-05-05 17:30:00,
2013-05-05 13:33:00,72.7,32.8,30.15,WNW,292,0.0,6.0,23,0.00,,CLR,0.00,VWS V12.08,2013-05-05 17:33:00,
2013-05-05 13:38:00,72.0,33.3,30.15,SSW,208,2.0,5.0,24,0.00,,CLR,0.00,VWS V12.08,2013-05-05 17:38:00,
2013-05-05 13:40:00,72.0,33.3,30.15,SSW,209,2.0,5.0,24,0.00,,FEW055,0.00,VWS V12.08,2013-05-05 17:40:00,
2013-05-05 13:43:00,72.0,32.2,30.14,SE,127,0.0,2.0,23,0.00,,CLR,0.00,VWS V12.08,2013-05-05 17:43:00,
2013-05-05 13:49:00,72.7,33.9,30.14,SW,217,1.0,6.0,24,0.00,,CLR,0.00,VWS V12.08,2013-05-05 17:49:00,
2013-05-05 13:50:00,72.7,33.9,30.14,WSW,240,3.0,6.0,24,0.00,,FEW055,0.00,VWS V12.08,2013-05-05 17:50:00,
2013-05-05 13:53:00,72.7,34.9,30.14,SW,215,1.0,9.0,25,0.00,,CLR,0.00,VWS V12.08,2013-05-05 17:53:00,
2013-05-05 13:59:00,73.4,34.5,30.14,WSW,241,0.0,5.0,24,0.00,,CLR,0.00,VWS V12.08,2013-05-05 17:59:00,
2013-05-05 14:00:00,73.3,34.4,30.14,WSW,241,2.0,5.0,24,0.00,,FEW055,0.00,VWS V12.08,2013-05-05 18:00:00,
2013-05-05 14:04:00,74.5,33.2,30.14,NW,319,3.0,3.0,22,0.00,,CLR,0.00,VWS V12.08,2013-05-05 18:04:00,
2013-05-05 14:09:00,74.5,33.2,30.14,WSW,243,5.0,8.0,22,0.00,,CLR,0.00,VWS V12.08,2013-05-05 18:09:00,
2013-05-05 14:10:00,74.5,33.2,30.14,SW,232,6.0,7.0,22,0.00,,FEW055,0.00,VWS V12.08,2013-05-05 18:10:00,
2013-05-05 14:14:00,74.1,32.9,30.13,WSW,248,1.0,6.0,22,0.00,,CLR,0.00,VWS V12.08,2013-05-05 18:14:00,
2013-05-05 14:19:00,74.3,33.0,30.13,SW,215,1.0,3.0,22,0.00,,CLR,0.00,VWS V12.08,2013-05-05 18:19:00,
2013-05-05 14:20:00,74.3,33.0,30.13,SSW,213,1.0,3.0,22,0.00,,FEW055,0.00,VWS V12.08,2013-05-05 18:20:00,
2013-05-05 14:24:00,74.1,32.9,30.13,WNW,291,2.0,2.0,22,0.00,,CLR,0.00,VWS V12.08,2013-05-05 18:24:00,
2013-05-05 14:29:00,74.1,32.9,30.13,SSW,192,3.0,4.0,22,0.00,,CLR,0.00,VWS V12.08,2013-05-05 18:29:00,
2013-05-05 14:30:00,74.1,34.0,30.13,SW,226,3.0,3.0,23,0.00,,FEW055,0.00,VWS V12.08,2013-05-05 18:30:00,
2013-05-05 14:34:00,74.0,32.8,30.13,WSW,257,2.0,8.0,22,0.00,,CLR,0.00,VWS V12.08,2013-05-05 18:34:00,
2013-05-05 14:39:00,74.0,32.8,30.13,SSW,198,0.0,7.0,22,0.00,,CLR,0.00,VWS V12.08,2013-05-05 18:39:00,
2013-05-05 14:40:00,74.0,31.6,30.13,SSW,195,1.0,7.0,21,0.00,,FEW055,0.00,VWS V12.08,2013-05-05 18:40:00,
2013-05-05 14:44:00,74.0,31.6,30.12,South,189,4.0,10.0,21,0.00,,CLR,0.00,VWS V12.08,2013-05-05 18:44:00,
2013-05-05 14:49:00,74.0,31.6,30.12,ESE,107,0.0,1.0,21,0.00,,CLR,0.00,VWS V12.08,2013-05-05 18:49:00,
2013-05-05 14:50:00,74.0,31.6,30.12,ESE,107,0.0,2.0,21,0.00,,FEW055,0.00,VWS V12.08,2013-05-05 18:50:00,
2013-05-05 14:54:00,74.5,33.2,30.12,East,96,0.0,1.0,22,0.00,,CLR,0.00,VWS V12.08,2013-05-05 18:54:00,
2013-05-05 14:59:00,75.0,32.5,30.11,South,186,0.0,2.0,21,0.00,,CLR,0.00,VWS V12.08,2013-05-05 18:59:00,
2013-05-05 15:00:00,75.0,32.5,30.11,East,96,0.0,0.0,21,0.00,,FEW055,0.00,VWS V12.08,2013-05-05 19:00:00,
2013-05-05 15:04:00,75.2,33.8,30.11,WNW,287,2.0,2.0,22,0.00,,CLR,0.00,VWS V12.08,2013-05-05 19:04:00,
2013-05-05 15:09:00,75.2,33.8,30.11,NE,54,1.0,2.0,22,0.00,,CLR,0.00,VWS V12.08,2013-05-05 19:09:00,
2013-05-05 15:10:00,75.2,33.8,30.11,NW,312,0.0,1.0,22,0.00,,FEW055,0.00,VWS V12.08,2013-05-05 19:10:00,
2013-05-05 15:14:00,74.7,34.5,30.11,West,263,0.0,11.0,23,0.00,,CLR,0.00,VWS V12.08,2013-05-05 19:14:00,
2013-05-05 15:19:00,74.7,34.5,30.11,SW,233,10.0,13.0,23,0.00,,CLR,0.00,VWS V12.08,2013-05-05 19:19:00,
2013-05-05 15:20:00,74.8,33.5,30.11,SSW,213,13.0,13.0,22,0.00,,FEW055,0.00,VWS V12.08,2013-05-05 19:20:00,
2013-05-05 15:24:00,74.5,35.4,30.11,WSW,239,4.0,7.0,24,0.00,,CLR,0.00,VWS V12.08,2013-05-05 19:24:00,
2013-05-05 15:29:00,74.7,34.5,30.11,WSW,243,5.0,10.0,23,0.00,,CLR,0.00,VWS V12.08,2013-05-05 19:29:00,
2013-05-05 15:30:00,74.7,35.5,30.11,West,278,6.0,10.0,24,0.00,,FEW055,0.00,VWS V12.08,2013-05-05 19:30:00,
2013-05-05 15:34:00,74.8,37.7,30.11,SW,234,2.0,6.0,26,0.00,,CLR,0.00,VWS V12.08,2013-05-05 19:34:00,
2013-05-05 15:39:00,75.2,36.0,30.11,NW,315,3.0,3.0,24,0.00,,CLR,0.00,VWS V12.08,2013-05-05 19:39:00,
2013-05-05 15:40:00,75.2,36.0,30.11,West,277,3.0,3.0,24,0.00,,FEW055,0.00,VWS V12.08,2013-05-05 19:40:00,
2013-05-05 15:44:00,74.8,34.6,30.11,WSW,251,5.0,7.0,23,0.00,,CLR,0.00,VWS V12.08,2013-05-05 19:44:00,
2013-05-05 15:49:00,74.5,34.3,30.11,SW,223,2.0,3.0,23,0.00,,CLR,0.00,VWS V12.08,2013-05-05 19:49:00,
2013-05-05 15:50:00,74.5,35.4,30.11,SW,223,0.0,0.0,24,0.00,,FEW055,0.00,VWS V12.08,2013-05-05 19:50:00,
2013-05-05 15:54:00,74.3,34.1,30.11,SW,232,2.0,9.0,23,0.00,,CLR,0.00,VWS V12.08,2013-05-05 19:54:00,
2013-05-05 15:59:00,74.0,35.0,30.10,NW,311,0.0,2.0,24,0.00,,CLR,0.00,VWS V12.08,2013-05-05 19:59:00,
2013-05-05 16:00:00,74.0,35.0,30.10,NW,312,1.0,3.0,24,0.00,,FEW055,0.00,VWS V12.08,2013-05-05 20:00:00,
2013-05-05 16:04:00,74.0,35.0,30.10,SSW,196,1.0,6.0,24,0.00,,CLR,0.00,VWS V12.08,2013-05-05 20:04:00,
2013-05-05 16:09:00,74.1,35.0,30.10,WSW,243,4.0,11.0,24,0.00,,CLR,0.00,VWS V12.08,2013-05-05 20:09:00,
2013-05-05 16:10:00,74.1,35.0,30.10,SSW,206,2.0,5.0,24,0.00,,FEW055,0.00,VWS V12.08,2013-05-05 20:10:00,
2013-05-05 16:14:00,74.1,36.1,30.10,NNW,330,1.0,6.0,25,0.00,,CLR,0.00,VWS V12.08,2013-05-05 20:14:00,
2013-05-05 16:19:00,74.0,35.0,30.10,SW,217,6.0,7.0,24,0.00,,CLR,0.00,VWS V12.08,2013-05-05 20:19:00,
2013-05-05 16:20:00,74.1,35.0,30.10,SW,220,6.0,6.0,24,0.00,,FEW055,0.00,VWS V12.08,2013-05-05 20:20:00,
2013-05-05 16:24:00,74.1,34.0,30.10,WNW,296,0.0,4.0,23,0.00,,CLR,0.00,VWS V12.08,2013-05-05 20:24:00,
2013-05-05 16:29:00,74.3,35.2,30.10,West,267,2.0,2.0,24,0.00,,CLR,0.00,VWS V12.08,2013-05-05 20:29:00,
2013-05-05 16:30:00,74.3,35.2,30.10,West,265,0.0,3.0,24,0.00,,FEW055,0.00,VWS V12.08,2013-05-05 20:30:00,
2013-05-05 16:34:00,74.1,34.0,30.10,SW,232,2.0,7.0,23,0.00,,CLR,0.00,VWS V12.08,2013-05-05 20:34:00,
2013-05-05 16:39:00,74.0,35.0,30.10,SW,236,2.0,2.0,24,0.00,,CLR,0.00,VWS V12.08,2013-05-05 20:39:00,
2013-05-05 16:40:00,74.0,33.9,30.10,SW,236,2.0,2.0,23,0.00,,FEW055,0.00,VWS V12.08,2013-05-05 20:40:00,
2013-05-05 16:44:00,74.1,34.0,30.10,WSW,258,3.0,6.0,23,0.00,,CLR,0.00,VWS V12.08,2013-05-05 20:44:00,
2013-05-05 16:49:00,74.0,32.8,30.10,South,191,0.0,0.0,22,0.00,,CLR,0.00,VWS V12.08,2013-05-05 20:49:00,
2013-05-05 16:50:00,74.0,32.8,30.10,South,191,0.0,1.0,22,0.00,,FEW055,0.00,VWS V12.08,2013-05-05 20:50:00,
2013-05-05 16:54:00,74.0,33.9,30.10,WSW,241,2.0,7.0,23,0.00,,CLR,0.00,VWS V12.08,2013-05-05 20:54:00,
2013-05-05 16:59:00,74.1,34.0,30.09,West,281,1.0,2.0,23,0.00,,CLR,0.00,VWS V12.08,2013-05-05 20:59:00,
2013-05-05 17:00:00,74.1,34.0,30.09,West,281,1.0,2.0,23,0.00,,FEW055,0.00,VWS V12.08,2013-05-05 21:00:00,
2013-05-05 17:04:00,74.1,32.9,30.09,WSW,258,0.0,9.0,22,0.00,,CLR,0.00,VWS V12.08,2013-05-05 21:04:00,
2013-05-05 17:09:00,74.0,33.9,30.09,WSW,256,1.0,10.0,23,0.00,,CLR,0.00,VWS V12.08,2013-05-05 21:09:00,
2013-05-05 17:10:00,74.0,33.9,30.09,WSW,244,7.0,12.0,23,0.00,,FEW055,0.00,VWS V12.08,2013-05-05 21:10:00,
2013-05-05 17:14:00,73.8,33.7,30.09,NW,312,3.0,6.0,23,0.00,,CLR,0.00,VWS V12.08,2013-05-05 21:14:00,
2013-05-05 17:19:00,73.4,33.4,30.09,WSW,250,6.0,12.0,23,0.00,,CLR,0.00,VWS V12.08,2013-05-05 21:19:00,
2013-05-05 17:20:00,73.6,34.6,30.09,West,264,8.0,11.0,24,0.00,,FEW055,0.00,VWS V12.08,2013-05-05 21:20:00,
2013-05-05 17:24:00,73.1,34.2,30.09,WSW,254,3.0,11.0,24,0.00,,CLR,0.00,VWS V12.08,2013-05-05 21:24:00,
2013-05-05 17:29:00,73.1,33.1,30.09,SW,219,6.0,8.0,23,0.00,,CLR,0.00,VWS V12.08,2013-05-05 21:29:00,
2013-05-05 17:30:00,73.1,34.2,30.09,SSW,196,8.0,8.0,24,0.00,,FEW055,0.00,VWS V12.08,2013-05-05 21:30:00,
2013-05-05 17:34:00,73.1,34.2,30.09,West,260,5.0,6.0,24,0.00,,CLR,0.00,VWS V12.08,2013-05-05 21:34:00,
2013-05-05 17:39:00,73.1,34.2,30.09,WNW,295,1.0,6.0,24,0.00,,CLR,0.00,VWS V12.08,2013-05-05 21:39:00,
2013-05-05 17:40:00,73.1,33.1,30.09,WSW,239,4.0,7.0,23,0.00,,FEW055,0.00,VWS V12.08,2013-05-05 21:40:00,
2013-05-05 17:44:00,73.1,33.1,30.09,WSW,243,3.0,7.0,23,0.00,,CLR,0.00,VWS V12.08,2013-05-05 21:44:00,
2013-05-05 17:49:00,73.1,34.2,30.09,West,261,1.0,7.0,24,0.00,,CLR,0.00,VWS V12.08,2013-05-05 21:49:00,
2013-05-05 17:50:00,73.1,34.2,30.09,WSW,257,5.0,7.0,24,0.00,,FEW055,0.00,VWS V12.08,2013-05-05 21:50:00,
2013-05-05 17:54:00,73.1,33.1,30.09,SW,234,4.0,6.0,23,0.00,,CLR,0.00,VWS V12.08,2013-05-05 21:54:00,
2013-05-05 17:59:00,73.1,34.2,30.09,WSW,250,7.0,7.0,24,0.00,,CLR,0.00,VWS V12.08,2013-05-05 21:59:00,
2013-05-05 18:00:00,73.1,33.1,30.09,SW,230,3.0,5.0,23,0.00,,FEW055,0.00,VWS V12.08,2013-05-05 22:00:00,
2013-05-05 18:04:00,72.9,34.0,30.09,SW,229,3.0,3.0,24,0.00,,CLR,0.00,VWS V12.08,2013-05-05 22:04:00,
2013-05-05 18:09:00,72.7,34.9,30.09,WSW,247,2.0,2.0,25,0.00,,CLR,0.00,VWS V12.08,2013-05-05 22:09:00,
2013-05-05 18:10:00,72.9,34.0,30.09,WSW,247,0.0,2.0,24,0.00,,FEW055,0.00,VWS V12.08,2013-05-05 22:10:00,
2013-05-05 18:14:00,72.7,33.9,30.09,West,275,3.0,3.0,24,0.00,,CLR,0.00,VWS V12.08,2013-05-05 22:14:00,
2013-05-05 18:19:00,72.4,33.6,30.09,WSW,240,3.0,6.0,24,0.00,,CLR,0.00,VWS V12.08,2013-05-05 22:19:00,
2013-05-05 18:20:00,72.4,33.6,30.09,West,267,1.0,5.0,24,0.00,,FEW055,0.00,VWS V12.08,2013-05-05 22:20:00,
2013-05-05 18:24:00,71.9,33.2,30.09,SSW,195,3.0,4.0,24,0.00,,CLR,0.00,VWS V12.08,2013-05-05 22:24:00,
2013-05-05 18:29:00,71.5,33.9,30.09,SE,138,4.0,10.0,25,0.00,,CLR,0.00,VWS V12.08,2013-05-05 22:29:00,
2013-05-05 18:30:00,71.7,34.0,30.09,WSW,256,5.0,10.0,25,0.00,,FEW055,0.00,VWS V12.08,2013-05-05 22:30:00,
2013-05-05 18:34:00,71.2,33.6,30.09,SW,233,6.0,10.0,25,0.00,,CLR,0.00,VWS V12.08,2013-05-05 22:34:00,
2013-05-05 18:39:00,70.8,32.3,30.09,WNW,299,2.0,7.0,24,0.00,,CLR,0.00,VWS V12.08,2013-05-05 22:39:00,
2013-05-05 18:40:00,70.8,33.3,30.09,West,280,6.0,7.0,25,0.00,,FEW055,0.00,VWS V12.08,2013-05-05 22:40:00,
2013-05-05 18:44:00,70.7,32.2,30.10,South,186,0.0,4.0,24,0.00,,CLR,0.00,VWS V12.08,2013-05-05 22:44:00,
2013-05-05 18:49:00,70.5,33.0,30.10,WNW,294,3.0,6.0,25,0.00,,CLR,0.00,VWS V12.08,2013-05-05 22:49:00,
2013-05-05 18:50:00,70.5,33.0,30.10,WSW,258,2.0,6.0,25,0.00,,FEW055,0.00,VWS V12.08,2013-05-05 22:50:00,
2013-05-05 18:54:00,70.1,32.7,30.10,WSW,243,7.0,7.0,25,0.00,,CLR,0.00,VWS V12.08,2013-05-05 22:54:00,
2013-05-05 18:59:00,70.0,32.6,30.10,SSE,147,0.0,3.0,25,0.00,,CLR,0.00,VWS V12.08,2013-05-05 22:59:00,
2013-05-05 19:00:00,70.0,32.6,30.10,SSE,161,0.0,5.0,25,0.00,,FEW055,0.00,VWS V12.08,2013-05-05 23:00:00,
2013-05-05 19:04:00,69.6,32.2,30.10,SW,229,8.0,12.0,25,0.00,,CLR,0.00,VWS V12.08,2013-05-05 23:04:00,
2013-05-05 19:09:00,69.3,32.0,30.10,South,181,2.0,5.0,25,0.00,,CLR,0.00,VWS V12.08,2013-05-05 23:09:00,
2013-05-05 19:10:00,69.5,32.2,30.10,SSE,155,5.0,8.0,25,0.00,,FEW055,0.00,VWS V12.08,2013-05-05 23:10:00,
2013-05-05 19:14:00,68.9,31.7,30.11,SW,226,2.0,6.0,25,0.00,,CLR,0.00,VWS V12.08,2013-05-05 23:14:00,
2013-05-05 19:19:00,68.6,32.4,30.11,SSW,192,6.0,8.0,26,0.00,,CLR,0.00,VWS V12.08,2013-05-05 23:19:00,
2013-05-05 19:20:00,68.8,32.5,30.11,SSW,212,3.0,7.0,26,0.00,,FEW055,0.00,VWS V12.08,2013-05-05 23:20:00,
2013-05-05 19:24:00,68.3,33.1,30.11,SSW,203,3.0,4.0,27,0.00,,CLR,0.00,VWS V12.08,2013-05-05 23:24:00,
2013-05-05 19:29:00,67.9,32.7,30.11,SW,219,0.0,3.0,27,0.00,,CLR,0.00,VWS V12.08,2013-05-05 23:29:00,
2013-05-05 19:30:00,68.1,32.9,30.11,South,186,2.0,6.0,27,0.00,,FEW055,0.00,VWS V12.08,2013-05-05 23:30:00,
2013-05-05 19:35:00,67.6,32.5,30.11,SW,222,2.0,6.0,27,0.00,,CLR,0.00,VWS V12.08,2013-05-05 23:35:00,
2013-05-05 19:40:00,67.3,32.2,30.11,WSW,258,3.0,6.0,27,0.00,,CLR,0.00,VWS V12.08,2013-05-05 23:40:00,
2013-05-05 19:45:00,66.9,32.8,30.11,WSW,250,2.0,2.0,28,0.00,,CLR,0.00,VWS V12.08,2013-05-05 23:45:00,
2013-05-05 19:50:00,66.6,32.5,30.11,WSW,254,6.0,6.0,28,0.00,,CLR,0.00,VWS V12.08,2013-05-05 23:50:00,
2013-05-05 19:55:00,66.3,32.2,30.11,SW,220,2.0,2.0,28,0.00,,CLR,0.00,VWS V12.08,2013-05-05 23:55:00,
2013-05-05 20:00:00,65.8,30.9,30.12,SW,223,0.0,3.0,27,0.00,,CLR,0.00,VWS V12.08,2013-05-06 00:00:00,
2013-05-05 20:05:00,65.4,30.6,30.12,SW,226,2.0,4.0,27,0.00,,CLR,0.00,VWS V12.08,2013-05-06 00:05:00,
2013-05-05 20:10:00,64.8,32.7,30.12,NW,304,3.0,3.0,30,0.00,,CLR,0.00,VWS V12.08,2013-05-06 00:10:00,
2013-05-05 20:15:00,64.3,32.2,30.12,WNW,299,0.0,0.0,30,0.00,,CLR,0.00,VWS V12.08,2013-05-06 00:15:00,
2013-05-05 20:20:00,64.0,33.6,30.12,WNW,298,0.0,0.0,32,0.00,,CLR,0.00,VWS V12.08,2013-05-06 00:20:00,
2013-05-05 20:25:00,63.5,32.3,30.12,West,263,1.0,2.0,31,0.00,,CLR,0.00,VWS V12.08,2013-05-06 00:25:00,
2013-05-05 20:30:00,63.2,33.6,30.13,WSW,257,1.0,2.0,33,0.00,,CLR,0.00,VWS V12.08,2013-05-06 00:30:00,
2013-05-05 20:35:00,62.8,33.3,30.13,WSW,254,0.0,1.0,33,0.00,,CLR,0.00,VWS V12.08,2013-05-06 00:35:00,
2013-05-05 20:40:00,62.3,33.6,30.13,SW,226,0.0,0.0,34,0.00,,CLR,0.00,VWS V12.08,2013-05-06 00:40:00,
2013-05-05 20:45:00,61.9,34.0,30.13,SW,226,0.0,0.0,35,0.00,,CLR,0.00,VWS V12.08,2013-05-06 00:45:00,
2013-05-05 20:50:00,61.1,35.3,30.13,SW,226,0.0,0.0,38,0.00,,CLR,0.00,VWS V12.08,2013-05-06 00:50:00,
2013-05-05 20:55:00,60.3,36.5,30.13,SW,226,0.0,0.0,41,0.00,,CLR,0.00,VWS V12.08,2013-05-06 00:55:00,
2013-05-05 21:00:00,59.2,37.3,30.14,SW,227,0.0,0.0,44,0.00,,CLR,0.00,VWS V12.08,2013-05-06 01:00:00,
2013-05-05 21:05:00,58.4,37.2,30.14,SW,226,1.0,2.0,45,0.00,,CLR,0.00,VWS V12.08,2013-05-06 01:05:00,
2013-05-05 21:10:00,57.6,37.0,30.14,NW,305,2.0,3.0,46,0.00,,CLR,0.00,VWS V12.08,2013-05-06 01:10:00,
2013-05-05 21:15:00,56.9,38.5,30.14,NW,305,0.0,0.0,50,0.00,,CLR,0.00,VWS V12.08,2013-05-06 01:15:00,
2013-05-05 21:20:00,56.1,38.2,30.14,NW,305,2.0,2.0,51,0.00,,CLR,0.00,VWS V12.08,2013-05-06 01:20:00,
2013-05-05 21:25:00,55.3,38.5,30.14,NW,305,2.0,3.0,53,0.00,,CLR,0.00,VWS V12.08,2013-05-06 01:25:00,
2013-05-05 21:30:00,54.9,38.1,30.15,NW,305,0.0,0.0,53,0.00,,CLR,0.00,VWS V12.08,2013-05-06 01:30:00,
2013-05-05 21:35:00,54.5,38.2,30.15,NW,305,0.0,2.0,54,0.00,,CLR,0.00,VWS V12.08,2013-05-06 01:35:00,
2013-05-05 21:40:00,54.2,37.9,30.15,NW,306,3.0,3.0,54,0.00,,CLR,0.00,VWS V12.08,2013-05-06 01:40:00,
2013-05-05 21:45:00,53.9,37.7,30.15,WNW,301,0.0,0.0,54,0.00,,CLR,0.00,VWS V12.08,2013-05-06 01:45:00,
2013-05-05 21:50:00,53.6,38.3,30.15,WNW,301,0.0,0.0,56,0.00,,CLR,0.00,VWS V12.08,2013-05-06 01:50:00,
2013-05-05 21:55:00,53.4,38.1,30.15,NW,311,0.0,0.0,56,0.00,,CLR,0.00,VWS V12.08,2013-05-06 01:55:00,
2013-05-05 22:00:00,53.4,38.1,30.15,NW,311,0.0,0.0,56,0.00,,CLR,0.00,VWS V12.08,2013-05-06 02:00:00,
2013-05-05 22:05:00,53.3,38.0,30.15,WNW,302,0.0,0.0,56,0.00,,CLR,0.00,VWS V12.08,2013-05-06 02:05:00,
2013-05-05 22:10:00,53.0,39.5,30.15,WNW,302,0.0,0.0,60,0.00,,CLR,0.00,VWS V12.08,2013-05-06 02:10:00,
2013-05-05 22:15:00,52.5,39.9,30.16,WNW,302,0.0,0.0,62,0.00,,CLR,0.00,VWS V12.08,2013-05-06 02:15:00,
2013-05-05 22:20:00,51.9,38.5,30.16,WNW,302,0.0,0.0,60,0.00,,CLR,0.00,VWS V12.08,2013-05-06 02:20:00,
2013-05-05 22:25:00,51.5,38.1,30.16,WNW,302,0.0,0.0,60,0.00,,CLR,0.00,VWS V12.08,2013-05-06 02:25:00,
2013-05-05 22:30:00,51.2,37.8,30.16,WNW,302,0.0,0.0,60,0.00,,CLR,0.00,VWS V12.08,2013-05-06 02:30:00,
2013-05-05 22:35:00,50.8,38.3,30.16,WNW,302,0.0,0.0,62,0.00,,CLR,0.00,VWS V12.08,2013-05-06 02:35:00,
2013-05-05 22:40:00,50.5,39.2,30.16,WNW,302,0.0,0.0,65,0.00,,CLR,0.00,VWS V12.08,2013-05-06 02:40:00,
2013-05-05 22:45:00,50.0,39.1,30.16,WNW,302,0.0,0.0,66,0.00,,CLR,0.00,VWS V12.08,2013-05-06 02:45:00,
2013-05-05 22:50:00,49.7,40.0,30.16,WNW,302,0.0,0.0,69,0.00,,CLR,0.00,VWS V12.08,2013-05-06 02:50:00,
2013-05-05 22:55:00,49.4,39.3,30.16,WNW,302,0.0,0.0,68,0.00,,CLR,0.00,VWS V12.08,2013-05-06 02:55:00,
2013-05-05 23:00:00,49.1,39.8,30.16,WNW,302,0.0,0.0,70,0.00,,CLR,0.00,VWS V12.08,2013-05-06 03:00:00,
2013-05-05 23:05:00,48.8,39.8,30.16,WNW,302,0.0,0.0,71,0.00,,CLR,0.00,VWS V12.08,2013-05-06 03:05:00,
2013-05-05 23:10:00,48.5,39.5,30.16,WNW,302,0.0,0.0,71,0.00,,CLR,0.00,VWS V12.08,2013-05-06 03:10:00,
2013-05-05 23:15:00,48.2,39.6,30.16,WNW,302,0.0,0.0,72,0.00,,CLR,0.00,VWS V12.08,2013-05-06 03:15:00,
2013-05-05 23:20:00,48.1,39.9,30.16,WNW,302,2.0,2.0,73,0.00,,CLR,0.00,VWS V12.08,2013-05-06 03:20:00,
2013-05-05 23:25:00,47.6,39.7,30.16,WNW,301,0.0,1.0,74,0.00,,CLR,0.00,VWS V12.08,2013-05-06 03:25:00,
2013-05-05 23:30:00,47.4,39.9,30.16,WNW,302,0.0,0.0,75,0.00,,CLR,0.00,VWS V12.08,2013-05-06 03:30:00,
2013-05-05 23:35:00,47.1,39.6,30.16,WNW,301,1.0,2.0,75,0.00,,CLR,0.00,VWS V12.08,2013-05-06 03:35:00,
2013-05-05 23:40:00,46.9,39.7,30.16,West,272,3.0,4.0,76,0.00,,CLR,0.00,VWS V12.08,2013-05-06 03:40:00,
2013-05-05 23:45:00,46.6,39.8,30.17,WSW,258,0.0,3.0,77,0.00,,CLR,0.00,VWS V12.08,2013-05-06 03:45:00,
2013-05-05 23:50:00,46.5,39.7,30.17,WSW,258,0.0,0.0,77,0.00,,CLR,0.00,VWS V12.08,2013-05-06 03:50:00,
2013-05-05 23:55:00,46.2,38.7,30.17,WSW,258,0.0,2.0,75,0.00,,CLR,0.00,VWS V12.08,2013-05-06 03:55:00,